Date String (YYYY-MM-DD hh:mm:ss) UTC,Instrument flags,Ambient pressure (hPa),Sample flow (lpm),Bypass flow (lpm),Sample temperature (°C),Ambient temperature (°C),ASC tube jacket temperature (°C),LED temperature (°C),Box temperature (°C),Sample RH (%),Span deviation,Mass concentration (μg/m³),Mass concentration (μg/m³),Mass concentration (μg/m³)
DateTimeUTC,F1_M11,P_M11,Q1_M11,Q2_M11,T1_M11,T2_M11,T3_M11,T4_M11,T5_M11,U1_M11,ZSPAN_M11,X0_M11,X2_M11,X1_M11
2023-01-19 20:00:00,,0821.4,4.99,0.00,24.1,22.6,00.0,33.0,25.9,07.6,0000.0,0010.13,0005.43,0005.08
2023-01-19 20:01:00,,0821.3,5.01,0.00,24.1,22.6,00.0,33.0,25.9,07.3,0000.0,0009.26,0005.27,0004.93
2023-01-19 20:02:00,,0821.4,5.00,0.00,24.1,22.6,00.0,33.0,25.9,07.1,0000.0,0009.29,0005.11,0004.79
2023-01-19 20:03:00,,0821.4,5.01,0.00,24.1,22.6,00.0,33.0,25.9,07.0,0000.0,0009.22,0004.96,0004.66
2023-01-19 20:04:00,,0821.4,4.99,0.00,24.1,22.6,00.0,33.0,25.9,06.9,0000.0,0009.10,0004.82,0004.52
2023-01-19 20:05:00,,0821.4,5.00,0.00,24.1,22.6,00.0,33.0,25.9,06.9,0000.0,0009.00,0004.70,0004.39
2023-01-19 20:06:00,,0821.3,4.99,0.00,24.1,22.7,00.0,33.0,25.9,06.9,0000.0,0008.83,0004.57,0004.26
2023-01-19 20:07:00,,0821.4,5.01,0.00,24.1,22.7,00.0,33.0,25.9,06.9,0000.0,0008.50,0004.48,0004.17
2023-01-19 20:08:00,,0821.4,5.00,0.00,24.1,22.7,00.0,33.0,25.9,06.9,0000.0,0008.32,0004.39,0004.10
2023-01-19 20:09:00,,0821.4,4.99,0.00,24.1,22.7,00.0,33.0,25.9,07.0,0000.0,0008.08,0004.37,0004.07
2023-01-19 20:10:00,,0821.4,4.99,0.00,24.1,22.7,00.0,33.0,25.9,07.1,0000.0,0008.11,0004.37,0004.05
2023-01-19 20:11:00,,0821.4,5.02,0.00,24.1,22.7,00.0,33.0,25.9,07.0,0000.0,0008.09,0004.39,0004.06
2023-01-19 20:12:00,,0821.4,4.98,0.00,24.1,22.7,00.0,33.0,25.9,07.0,0000.0,0008.02,0004.42,0004.11
2023-01-19 20:13:00,,0821.4,5.00,0.00,24.1,22.7,00.0,33.0,25.9,07.0,0000.0,0008.43,0004.53,0004.20
2023-01-19 20:14:00,,0821.4,5.02,0.00,24.1,22.7,00.0,33.0,25.9,07.0,0000.0,0008.79,0004.69,0004.37
2023-01-19 20:15:00,,0821.4,5.00,0.00,24.1,22.7,00.0,33.0,26.0,07.0,0000.0,0009.02,0004.92,0004.60
2023-01-19 20:16:00,,0821.4,5.00,0.00,24.2,22.7,00.0,33.0,26.0,06.8,0000.0,0009.28,0005.14,0004.83
2023-01-19 20:17:00,,0821.4,5.00,0.00,24.2,22.8,00.0,33.0,25.9,06.8,0000.0,0009.49,0005.31,0005.01
2023-01-19 20:18:00,,0821.4,5.01,0.00,24.2,22.8,00.0,33.0,26.0,06.8,0000.0,0009.70,0005.54,0005.24
2023-01-19 20:19:00,,0821.4,5.01,0.00,24.2,22.8,00.0,33.0,26.0,06.8,0000.0,0009.79,0005.79,0005.48
2023-01-19 20:20:00,,0821.4,4.99,0.00,24.2,22.8,00.0,33.0,26.0,07.3,0000.0,0009.91,0005.94,0005.67
2023-01-19 20:21:00,,0821.4,5.00,0.00,24.2,22.8,00.0,33.0,26.0,08.1,0000.0,0010.33,0005.99,0005.73
2023-01-19 20:22:00,,0821.4,5.00,0.00,24.2,22.8,00.0,33.0,26.0,08.2,0000.0,0010.29,0006.02,0005.77
2023-01-19 20:23:00,,0821.4,5.01,0.00,24.2,22.8,00.0,33.0,26.0,08.4,0000.0,0010.47,0006.06,0005.80
2023-01-19 20:24:00,,0821.4,4.99,0.00,24.2,22.8,00.0,33.0,26.0,08.6,0000.0,0010.26,0006.09,0005.83
2023-01-19 20:25:00,,0821.4,4.99,0.00,24.2,22.8,00.0,33.0,26.0,09.0,0000.0,0009.97,0006.09,0005.84
2023-01-19 20:26:00,,0821.4,5.00,0.00,24.2,22.8,00.0,33.0,26.0,09.2,0000.0,0010.58,0006.05,0005.78
2023-01-19 20:27:00,,0821.4,5.00,0.00,24.2,22.8,00.0,33.0,26.0,09.1,0000.0,0010.41,0005.98,0005.71
2023-01-19 20:28:00,,0821.4,5.00,0.00,24.2,22.8,00.0,33.0,26.0,09.2,0000.0,0010.42,0006.01,0005.73
2023-01-19 20:29:00,,0821.4,5.00,0.00,24.2,22.8,00.0,33.0,26.0,09.4,0000.0,0010.50,0006.10,0005.80
2023-01-19 20:30:00,,0821.4,5.00,0.00,24.2,22.8,00.0,33.0,26.0,09.4,0000.0,0010.72,0006.27,0005.94
2023-01-19 20:31:00,,0821.4,5.00,0.00,24.2,22.8,00.0,33.0,26.0,09.4,0000.0,0010.91,0006.48,0006.11
2023-01-19 20:32:00,,0821.4,5.00,0.00,24.2,22.8,00.0,33.0,26.0,09.2,0000.0,0011.19,0006.75,0006.37
2023-01-19 20:33:00,,0821.4,5.00,0.00,24.2,22.8,00.0,33.0,26.0,09.1,0000.0,0011.42,0006.94,0006.55
2023-01-19 20:34:00,,0821.4,4.99,0.00,24.2,22.8,00.0,33.0,26.0,09.1,0000.0,0011.53,0007.14,0006.73
2023-01-19 20:35:00,,0821.4,5.00,0.00,24.2,22.8,00.0,33.0,26.0,09.3,0000.0,0011.52,0007.34,0006.92
2023-01-19 20:36:00,,0821.4,5.00,0.00,24.2,22.8,00.0,33.0,26.0,09.2,0000.0,0011.72,0007.51,0007.07
2023-01-19 20:37:00,,0821.4,5.02,0.00,24.2,22.8,00.0,33.0,26.0,09.1,0000.0,0011.24,0007.63,0007.18
2023-01-19 20:38:00,,0821.4,5.00,0.00,24.2,22.8,00.0,33.0,26.0,08.9,0000.0,0011.29,0007.69,0007.26
2023-01-19 20:39:00,,0821.4,5.00,0.00,24.2,22.8,00.0,33.0,26.0,08.6,0000.0,0011.27,0007.66,0007.24
2023-01-19 20:40:00,,0821.4,5.00,0.00,24.2,22.8,00.0,33.0,26.0,08.6,0000.0,0011.07,0007.52,0007.11
2023-01-19 20:41:00,,0821.4,5.00,0.00,24.2,22.8,00.0,33.0,26.0,08.6,0000.0,0010.87,0007.34,0006.96
2023-01-19 20:42:00,,0821.4,5.00,0.00,24.2,22.8,00.0,33.0,26.0,08.7,0000.0,0011.02,0007.21,0006.85
2023-01-19 20:43:00,,0821.4,5.01,0.00,24.2,22.8,00.0,33.0,26.1,09.0,0000.0,0010.87,0007.17,0006.81
2023-01-19 20:44:00,,0821.5,4.99,0.00,24.2,22.8,00.0,33.0,26.1,09.0,0000.0,0011.06,0007.20,0006.84
2023-01-19 20:45:00,,0821.5,5.00,0.00,24.2,22.8,00.0,33.0,26.1,09.2,0000.0,0011.25,0007.24,0006.89
2023-01-19 20:46:00,,0821.5,5.01,0.00,24.2,22.8,00.0,33.0,26.0,09.5,0000.0,0011.32,0007.30,0006.93
2023-01-19 20:47:00,,0821.5,4.99,0.00,24.2,22.8,00.0,33.0,26.1,09.6,0000.0,0011.45,0007.36,0006.99
2023-01-19 20:48:00,,0821.6,5.00,0.00,24.2,22.8,00.0,33.0,26.0,09.6,0000.0,0011.55,0007.49,0007.13
2023-01-19 20:49:00,,0821.6,5.01,0.00,24.2,22.8,00.0,33.0,26.0,09.6,0000.0,0011.90,0007.66,0007.29
2023-01-19 20:50:00,,0821.5,5.00,0.00,24.2,22.8,00.0,33.0,26.0,09.6,0000.0,0012.33,0007.93,0007.54
2023-01-19 20:51:00,,0821.5,5.00,0.00,24.2,22.8,00.0,33.0,26.0,09.6,0000.0,0012.88,0008.23,0007.83
2023-01-19 20:52:00,,0821.5,4.99,0.00,24.2,22.8,00.0,33.0,26.0,09.6,0000.0,0013.28,0008.53,0008.08
2023-01-19 20:53:00,,0821.6,5.01,0.00,24.2,22.8,00.0,33.0,26.0,09.7,0000.0,0013.38,0008.77,0008.30
2023-01-19 20:54:00,,0821.6,5.02,0.00,24.2,22.8,00.0,33.0,26.0,09.7,0000.0,0013.22,0008.96,0008.47
2023-01-19 20:55:00,,0821.5,5.00,0.00,24.2,22.8,00.0,33.0,26.0,09.6,0000.0,0013.22,0009.11,0008.62
2023-01-19 20:56:00,,0821.6,5.00,0.00,24.2,22.8,00.0,33.0,26.0,09.7,0000.0,0013.22,0009.24,0008.75
2023-01-19 20:57:00,,0821.6,4.99,0.00,24.2,22.8,00.0,33.0,26.0,09.8,0000.0,0013.31,0009.35,0008.88
2023-01-19 20:58:00,,0821.5,4.99,0.00,24.2,22.8,00.0,33.0,26.1,09.6,0000.0,0013.23,0009.37,0008.94
2023-01-19 20:59:00,,0821.5,5.00,0.00,24.2,22.8,00.0,33.0,26.1,09.6,0000.0,0013.31,0009.39,0008.96
